sat.trackr.live / text

‹ back to catalog

STARLINK-34311

NORAD 64206 · 2025-117D

PAYLOAD ACTIVE UNKNOWN

§ Identity

Operator
Country
US
Launch date
2025-05-31
Launch site
AFWTR
Launch vehicle
Mass (kg)
RCS (m²)

Purposes: comms

External: N2YO · Heavens-Above · Gunter

§ Orbital elements

Epoch: 2026-09-20T13:13:51.042144Z

Period
93.85 min
Inclination
53.1583°
Eccentricity
0.0000937
Mean motion
15.34414637 rev/d
Perigee alt
462.0 km
Apogee alt
463.3 km
Semi-major
6,840.8 km
B*
4.6717e-4
RAAN
211.3925°
Arg perigee
70.4709°
Mean anomaly
289.6394°
Rev number
7,443

§ Raw data

STARLINK-343111 64206U 25117D   26263.55128521  .00015448  00000+0  46717-3 0  99912 64206  53.1583 211.3925 0000937  70.4709 289.6394 15.34414637 74431

JSON: /api/v1/satellites/64206 · /tle

For live sub-satellite position, see the globe view (requires WebGL).

§ Visibility from observer

Set your observer location to see the next 7 days of passes ≥ 10°. The values pass through the URL so the page stays shareable.

No JS? Fill the form by hand. The geolocation button needs JavaScript.